TimeCST,TemperatureF,Dew PointF,Humidity,Sea Level PressureIn,VisibilityMPH,Wind Direction,Wind SpeedMPH,Gust SpeedMPH,PrecipitationIn,Events,Conditions,WindDirDegrees,DateUTC
12:52 AM,30.9,28.0,89,29.65,4.0,North,10.4,17.3,0.00,,Overcast,350,2013-02-27 06:52:00
1:12 AM,30.2,28.4,93,29.63,4.0,North,9.2,-,0.00,,Overcast,350,2013-02-27 07:12:00
1:20 AM,30.2,28.4,93,29.63,5.0,North,9.2,-,0.00,,Overcast,350,2013-02-27 07:20:00
1:52 AM,30.9,27.0,85,29.65,6.0,North,11.5,-,0.00,,Overcast,350,2013-02-27 07:52:00
2:52 AM,30.9,26.1,82,29.65,10.0,North,15.0,20.7,N/A,,Overcast,350,2013-02-27 08:52:00
3:52 AM,30.9,26.1,82,29.65,8.0,NNW,11.5,-,N/A,,Overcast,340,2013-02-27 09:52:00
4:52 AM,30.0,26.1,85,29.67,7.0,NNW,5.8,-,N/A,,Overcast,340,2013-02-27 10:52:00
4:59 AM,30.2,26.6,86,29.65,8.0,NNW,8.1,-,N/A,,Overcast,340,2013-02-27 10:59:00
5:38 AM,30.2,26.6,86,29.65,4.0,NNW,9.2,-,N/A,,Overcast,330,2013-02-27 11:38:00
5:52 AM,30.0,27.0,88,29.68,5.0,NNW,8.1,-,N/A,,Overcast,330,2013-02-27 11:52:00
6:52 AM,30.0,26.1,85,29.68,5.0,NNW,9.2,-,0.01,,Overcast,340,2013-02-27 12:52:00
7:08 AM,30.2,26.6,86,29.66,2.5,NNW,8.1,-,0.00,Snow,Light Snow,330,2013-02-27 13:08:00
7:52 AM,30.0,26.1,85,29.69,2.0,NNW,10.4,-,0.00,,Overcast,330,2013-02-27 13:52:00
7:59 AM,30.2,26.6,86,29.67,6.0,NNW,10.4,-,N/A,,Overcast,330,2013-02-27 13:59:00
8:52 AM,30.9,26.1,82,29.70,9.0,NNW,12.7,-,N/A,,Overcast,330,2013-02-27 14:52:00
9:07 AM,30.2,26.6,86,29.68,1.5,NNW,9.2,-,0.00,Snow,Light Snow,330,2013-02-27 15:07:00
9:23 AM,30.2,26.6,86,29.68,0.5,NNW,9.2,18.4,0.00,Snow,Snow,330,2013-02-27 15:23:00
9:37 AM,30.2,28.4,93,29.69,0.5,NW,8.1,-,0.01,Fog-Snow,Snow,320,2013-02-27 15:37:00
9:52 AM,30.9,28.0,89,29.71,0.5,NW,8.1,-,0.01,Fog-Snow,Light Snow,320,2013-02-27 15:52:00
10:10 AM,30.2,28.4,93,29.69,0.5,NW,8.1,-,0.01,Fog-Snow,Light Snow,320,2013-02-27 16:10:00
10:52 AM,30.9,28.9,92,29.71,0.8,NW,10.4,-,0.04,Snow,Light Snow,320,2013-02-27 16:52:00
10:59 AM,32.0,28.4,87,29.69,0.8,NW,8.1,-,0.00,Snow,Light Snow,320,2013-02-27 16:59:00
11:07 AM,32.0,28.4,87,29.69,0.8,NW,11.5,18.4,0.00,Snow,Light Snow,320,2013-02-27 17:07:00
11:38 AM,32.0,28.4,87,29.69,1.0,NW,9.2,-,0.02,Snow,Light Snow,310,2013-02-27 17:38:00
11:45 AM,32.0,28.4,87,29.69,0.8,NW,10.4,-,0.02,Snow,Light Snow,320,2013-02-27 17:45:00
11:52 AM,32.0,28.9,88,29.71,0.5,NW,10.4,-,0.02,Fog-Snow,Light Snow,320,2013-02-27 17:52:00
12:05 PM,32.0,28.4,87,29.69,0.8,NW,11.5,-,0.00,Snow,Light Snow,320,2013-02-27 18:05:00
12:11 PM,32.0,28.4,87,29.69,1.2,NW,13.8,-,N/A,Snow,Light Snow,320,2013-02-27 18:11:00
12:34 PM,32.0,28.4,87,29.69,0.8,NW,11.5,-,0.01,Snow,Light Snow,310,2013-02-27 18:34:00
12:45 PM,32.0,28.4,87,29.69,0.8,NW,10.4,-,0.01,Snow,Light Snow,310,2013-02-27 18:45:00
12:52 PM,32.0,28.9,88,29.71,0.5,NW,12.7,-,0.01,Fog-Snow,Light Snow,310,2013-02-27 18:52:00
1:04 PM,32.0,28.4,87,29.69,0.8,NW,11.5,-,0.01,Snow,Light Snow,320,2013-02-27 19:04:00
1:52 PM,33.1,28.9,85,29.72,1.2,NW,13.8,-,0.02,Snow,Light Snow,310,2013-02-27 19:52:00
2:01 PM,33.8,28.4,81,29.70,1.5,NW,11.5,-,0.00,Snow,Light Snow,320,2013-02-27 20:01:00
2:39 PM,33.8,30.2,87,29.70,1.2,NW,11.5,-,0.00,Snow,Light Snow,310,2013-02-27 20:39:00
2:52 PM,33.1,30.0,89,29.73,1.5,NW,11.5,-,0.01,Snow,Light Snow,320,2013-02-27 20:52:00
3:52 PM,33.8,30.2,87,29.73,2.0,NW,11.5,-,N/A,Snow,Light Snow,310,2013-02-27 21:52:00
4:40 PM,32.0,28.4,87,29.75,0.8,NW,11.5,-,0.00,Snow,Light Snow,310,2013-02-27 22:40:00
4:52 PM,32.0,30.0,92,29.77,0.8,NW,11.5,-,0.00,Snow,Light Snow,310,2013-02-27 22:52:00
5:27 PM,32.0,28.4,87,29.76,0.8,WNW,11.5,-,0.01,Snow,Light Snow,300,2013-02-27 23:27:00
5:34 PM,32.0,28.4,87,29.77,2.5,WNW,10.4,-,0.01,Snow,Light Snow,300,2013-02-27 23:34:00
5:52 PM,32.0,28.9,88,29.79,1.5,WNW,11.5,-,0.01,Snow,Light Snow,300,2013-02-27 23:52:00
6:29 PM,32.0,28.4,87,29.78,1.5,WNW,10.4,-,0.00,Snow,Light Snow,300,2013-02-28 00:29:00
6:41 PM,32.0,28.4,87,29.78,3.0,WNW,10.4,-,0.00,Snow,Light Snow,300,2013-02-28 00:41:00
6:52 PM,32.0,28.9,88,29.81,2.5,WNW,8.1,-,0.00,Snow,Light Snow,300,2013-02-28 00:52:00
7:52 PM,32.0,28.4,87,29.79,5.0,WNW,9.2,-,N/A,Snow,Light Snow,300,2013-02-28 01:52:00
8:08 PM,32.0,28.4,87,29.79,7.0,WNW,9.2,-,0.00,Snow,Light Snow,300,2013-02-28 02:08:00
8:52 PM,32.0,28.9,88,29.82,10.0,NW,10.4,-,0.00,,Overcast,310,2013-02-28 02:52:00
9:52 PM,32.0,28.9,88,29.83,9.0,NW,9.2,-,N/A,,Overcast,320,2013-02-28 03:52:00
10:38 PM,32.0,28.4,87,29.82,10.0,NW,5.8,-,N/A,,Mostly Cloudy,310,2013-02-28 04:38:00
10:52 PM,32.0,28.0,85,29.84,10.0,NW,9.2,-,N/A,,Overcast,320,2013-02-28 04:52:00
11:45 PM,32.0,28.4,87,29.82,10.0,NW,8.1,-,N/A,,Overcast,320,2013-02-28 05:45:00
11:52 PM,32.0,28.9,88,29.84,10.0,NW,9.2,-,N/A,,Overcast,320,2013-02-28 05:52:00